[[{"header":{"parameterUnit":"m.s-1","parameterCategory":2,"la1":30.2991,"la2":30.254,"lo1":-89.0895,"lo2":-89.0444,"dy":0.0017,"dx":0.0017,"nx":28,"ny":28,"refTime":"2025-01-10T03:00:00:Z","depth":"0","parameterNumber":2,"parameterNumberName":"U-component_of_CURRENTS"},"data":[0,0,0,0,0,0,0,0,0,0,0,0,0,0,0,0,0,0,0,0,0,0,0,0,0,0,0,0,0,0,0,0,0,0,0,0,0,0,0,0,0,0,0,0,0,0,0,0,0,0,0,0,0,0,0,0,0,0,-0.1653,-0.1652,0,-0.1592,-0.1591,-0.159,-0.1559,-0.1559,-0.1559,-0.156,-0.1441,-0.1438,-0.1434,0,0,0,0,0,0,0,0,0,0,0,0,0,-0.163,-0.1631,-0.1653,-0.1652,-0.1652,-0.1592,-0.1591,-0.1589,-0.1559,-0.1559,-0.156,-0.156,-0.1442,-0.1438,-0.1434,0,0,0,0,0,0,0,0,0,0,0,0,0,-0.1608,-0.1631,-0.1653,-0.1633,-0.1631,-0.1592,-0.1591,-0.1589,-0.1559,-0.1559,-0.156,-0.156,-0.1444,-0.1439,-0.1433,-0.1389,0,0,-0.1417,-0.1415,0,0,0,0,0,0,0,0,-0.1609,-0.1608,-0.1636,-0.1634,-0.1632,-0.1587,-0.154,-0.1521,-0.1558,-0.1581,-0.156,-0.1561,-0.1487,-0.1478,-0.146,-0.1384,-0.1379,-0.1417,-0.1414,-0.1411,-0.141,0,0,0,0,0,0,0,-0.1611,-0.161,-0.1624,-0.1636,-0.1633,-0.1589,-0.1587,-0.1535,-0.1527,-0.1579,-0.1578,-0.1578,-0.1485,-0.1465,-0.1457,-0.1377,-0.1417,-0.1412,-0.1409,-0.1407,-0.1236,-0.1235,0,0,0,0,0,0,-0.1633,-0.1612,-0.1626,-0.1623,-0.1627,-0.1589,-0.1587,-0.1597,-0.1529,-0.1521,-0.1578,-0.1577,-0.1474,-0.1463,-0.1453,-0.1433,-0.1411,-0.1406,-0.1403,-0.1238,-0.1236,-0.1235,0,0,0,0,0,0,-0.1633,-0.1635,-0.1629,-0.1619,-0.1615,-0.1591,-0.1602,-0.1596,-0.1588,-0.1529,-0.1519,-0.1578,-0.1474,-0.146,-0.1404,-0.1427,-0.1404,-0.1399,-0.1239,-0.1237,-0.1235,-0.1371,0,0,0,0,0,0,-0.1633,-0.1636,-0.1648,-0.1621,-0.1617,-0.1618,-0.1601,-0.1595,-0.1589,-0.1588,-0.1526,-0.1515,-0.1473,-0.1412,-0.1398,-0.1419,-0.1395,-0.1241,-0.1238,-0.1236,-0.1368,-0.1373,-0.1378,0,0,0,0,0,-0.1632,-0.1651,-0.1649,-0.1651,-0.1636,-0.1618,-0.1612,-0.1592,-0.1589,-0.1586,-0.1535,-0.1517,-0.1386,-0.1406,-0.1391,-0.1412,-0.1242,-0.1239,-0.1236,-0.1366,-0.1372,-0.1378,0,0,0,0,0,0,-0.165,-0.165,-0.1646,-0.1666,-0.1649,-0.1615,-0.1614,-0.16,-0.1558,-0.1556,-0.15,-0.1484,-0.1436,-0.1391,-0.1415,-0.1346,-0.131,-0.1304,-0.1414,-0.142,-0.1425,-0.1519,-0.1391,0,0,0,0,0,-0.166,-0.1676,-0.1661,-0.1676,-0.1672,-0.1644,-0.1635,-0.1621,-0.1584,-0.1569,-0.1521,-0.1462,-0.1407,-0.1391,-0.1322,-0.1296,-0.1338,-0.1292,-0.1297,-0.1303,-0.1363,-0.1418,-0.1437,-0.1224,-0.1224,-0.1224,0,0,-0.1671,-0.1674,-0.1682,-0.1681,-0.1666,-0.1674,-0.164,-0.1633,-0.1642,-0.1559,-0.1543,-0.1469,-0.1394,-0.1356,-0.1333,-0.1333,-0.1385,-0.1299,-0.1305,-0.1363,-0.1417,-0.144,-0.1459,-0.1222,-0.1223,-0.1223,0,0,-0.17,-0.1704,-0.1725,-0.1721,-0.1712,-0.1695,-0.17,-0.1666,-0.1656,-0.1616,-0.1561,-0.1519,-0.1419,-0.1401,-0.1372,-0.1364,-0.1394,-0.1317,-0.1451,-0.1503,-0.1524,-0.1543,-0.1653,-0.1681,-0.1343,-0.1343,-0.1343,0,-0.1715,-0.1755,-0.1725,-0.1746,-0.1774,-0.1715,-0.1758,-0.1721,-0.1671,-0.1692,-0.1622,-0.1536,-0.1455,-0.1475,-0.1461,-0.1388,-0.1442,-0.1445,-0.1521,-0.154,-0.1558,-0.1666,-0.1695,-0.1349,-0.1348,-0.1348,-0.1347,0,-0.1761,-0.1798,-0.1812,-0.1834,-0.1843,-0.1867,-0.1838,-0.1833,-0.1801,-0.178,-0.1767,-0.1656,-0.1636,-0.1575,-0.1514,-0.1592,-0.16,-0.1513,-0.1534,-0.159,-0.1697,-0.1725,-0.1358,-0.1356,-0.1354,-0.1352,0,0,-0.18,-0.1843,-0.1851,-0.1913,-0.1911,-0.1939,-0.1953,-0.1987,-0.2047,-0.1947,-0.2029,-0.1898,-0.1864,-0.183,-0.1749,-0.1783,-0.1924,-0.172,-0.1719,-0.1884,-0.211,-0.2248,-0.2292,-0.1861,-0.1866,-0.1869,-0.215,0,-0.1862,-0.1949,-0.1952,-0.2056,-0.2115,-0.2107,-0.2153,-0.2166,-0.2144,-0.2183,-0.21,-0.2099,-0.1952,-0.1956,-0.1966,-0.191,-0.2,-0.1861,-0.1985,-0.1992,-0.2152,-0.2329,-0.2398,-0.2666,-0.2177,-0.2182,-0.2185,0,-0.1912,-0.1987,-0.2091,-0.2241,-0.2271,-0.2308,-0.2433,-0.2459,-0.2477,-0.2474,-0.2465,-0.2386,-0.2404,-0.2253,-0.2297,-0.2219,-0.2212,-0.2174,-0.2182,-0.2299,-0.2184,-0.2517,-0.2735,-0.2763,-0.2228,-0.2225,-0.2222,0,-0.1977,-0.21,-0.2207,-0.2243,-0.236,-0.2432,-0.2496,-0.2545,-0.2619,-0.2656,-0.2723,-0.2692,-0.27,-0.2662,-0.2559,-0.2453,-0.2635,-0.2465,-0.2616,-0.2625,-0.2709,-0.272,-0.3022,-0.2582,-0.2581,-0.2581,-0.258,0,-0.2057,-0.2155,-0.2246,-0.2306,-0.2484,-0.2529,-0.2692,-0.2744,-0.2837,-0.2964,-0.2878,-0.2978,-0.2802,-0.2841,-0.2725,-0.281,-0.2783,-0.2741,-0.2737,-0.2756,-0.2767,-0.2808,-0.2721,-0.2591,-0.2589,-0.2587,-0.2585,0,-0.2106,-0.2148,-0.2295,-0.2447,-0.25,-0.262,-0.2807,-0.2922,-0.3009,-0.3173,-0.3205,-0.3237,-0.3299,-0.3184,-0.3152,-0.3078,-0.3112,-0.3129,-0.3203,-0.3205,-0.3345,-0.326,-0.3488,-0.3429,-0.3372,-0.3377,-0.3382,0,-0.2143,-0.2201,-0.2376,-0.245,-0.2515,-0.2687,-0.2808,-0.2966,-0.3089,-0.3339,-0.3434,-0.356,-0.3641,-0.3704,-0.3598,-0.3573,-0.339,-0.3644,-0.3443,-0.349,-0.3388,-0.3232,-0.3147,-0.3607,-0.3613,-0.3618,-0.3622,0,-0.2216,-0.2244,-0.2345,-0.2481,-0.2611,-0.2797,-0.2978,-0.311,-0.3317,-0.3474,-0.37,-0.3804,-0.397,-0.3998,-0.4009,-0.3932,-0.3639,-0.3752,-0.3765,-0.3636,-0.3522,-0.3415,-0.3306,-0.3667,-0.3662,-0.3659,-0.3656,-0.3655,-0.2239,-0.2301,-0.2367,-0.2496,-0.2646,-0.2811,-0.2851,-0.3052,-0.3237,-0.3314,-0.373,-0.3779,-0.4167,-0.419,-0.4188,-0.4249,-0.4001,-0.4151,-0.4063,-0.3918,-0.3825,-0.3882,-0.4236,-0.4235,-0.4234,-0.4233,-0.4232,0,-0.2254,-0.2276,-0.2376,-0.2465,-0.2537,-0.2666,-0.2869,-0.2799,-0.2863,-0.3042,-0.3206,-0.3718,-0.4063,-0.4277,-0.459,-0.4557,-0.4335,-0.4475,-0.4242,-0.4142,-0.422,-0.4196,-0.4602,-0.4602,-0.4602,-0.4602,-0.4602,-0.4602,-0.2249,-0.228,-0.2299,-0.2301,-0.2337,-0.2323,-0.2365,-0.2295,-0.2305,-0.2337,-0.25,-0.2678,-0.3432,-0.4468,-0.4787,-0.4717,-0.4495,-0.4493,-0.4339,-0.4383,-0.4342,-0.4303,-0.4268,-0.4683,-0.4682,-0.4229,-0.4226,-0.4224]},{"header":{"parameterUnit":"m.s-1","parameterCategory":2,"la1":30.2991,"la2":30.254,"lo1":-89.0895,"lo2":-89.0444,"dy":0.0017,"dx":0.0017,"nx":28,"ny":28,"refTime":"2025-01-10T03:00:00:Z","depth":"0","parameterNumber":3,"parameterNumberName":"V-component_of_CURRENTS"},"data":[0,0,0,0,0,0,0,0,0,0,0,0,0,0,0,0,0,0,0,0,0,0,0,0,0,0,0,0,0,0,0,0,0,0,0,0,0,0,0,0,0,0,0,0,0,0,0,0,0,0,0,0,0,0,0,0,0,0,0.0561,0.0562,0,0.0674,0.0675,0.0676,0.0725,0.0725,0.0725,0.0724,0.0838,0.0841,0.0844,0,0,0,0,0,0,0,0,0,0,0,0,0,0.0457,0.0458,0.0561,0.0562,0.0563,0.0673,0.0675,0.0676,0.0725,0.0725,0.0725,0.0724,0.0837,0.0841,0.0844,0,0,0,0,0,0,0,0,0,0,0,0,0,0.0529,0.0458,0.056,0.0601,0.0605,0.0673,0.0675,0.0677,0.0725,0.0725,0.0724,0.0724,0.0835,0.084,0.0845,0.0881,0,0,0.086,0.0862,0,0,0,0,0,0,0,0,0.0525,0.0533,0.0593,0.0598,0.0603,0.0685,0.068,0.0745,0.0725,0.068,0.0724,0.0724,0.0787,0.0795,0.0818,0.0886,0.0891,0.086,0.0863,0.0865,0.0866,0,0,0,0,0,0,0,0.052,0.0529,0.0606,0.0595,0.0601,0.0637,0.0646,0.0693,0.0734,0.0684,0.0688,0.07,0.0789,0.0813,0.0821,0.0893,0.086,0.0864,0.0867,0.0869,0.1005,0.1006,0,0,0,0,0,0,0.0502,0.0524,0.0602,0.0609,0.0562,0.0639,0.0649,0.0659,0.0734,0.0745,0.07,0.0702,0.0805,0.0815,0.0825,0.0876,0.0865,0.087,0.0872,0.1004,0.1005,0.1006,0,0,0,0,0,0,0.0499,0.0508,0.0597,0.0569,0.0583,0.064,0.0651,0.0661,0.0683,0.0746,0.0757,0.071,0.0805,0.0818,0.087,0.088,0.0872,0.0876,0.1003,0.1004,0.1005,0.0975,0,0,0,0,0,0,0.0496,0.0506,0.0503,0.0567,0.0584,0.0631,0.0652,0.0664,0.0691,0.0694,0.0758,0.0769,0.0806,0.0863,0.0875,0.0887,0.088,0.1002,0.1004,0.1005,0.0975,0.0975,0.0975,0,0,0,0,0,0.0492,0.0485,0.0502,0.0512,0.0579,0.0631,0.0642,0.0683,0.0691,0.0701,0.0748,0.0767,0.088,0.0868,0.0882,0.0895,0.1002,0.1003,0.1005,0.0975,0.0975,0.0975,0,0,0,0,0,0,0.0437,0.0491,0.0511,0.0521,0.057,0.0639,0.0646,0.0679,0.0725,0.0724,0.0781,0.0796,0.0841,0.0875,0.086,0.0938,0.0942,0.0946,0.0915,0.0915,0.0915,0.0913,0.0884,0,0,0,0,0,0.0424,0.0429,0.0497,0.0502,0.0523,0.0585,0.0608,0.064,0.0692,0.0711,0.076,0.0811,0.086,0.0891,0.0934,0.0984,0.102,0.1001,0.1,0.1,0.1009,0.107,0.1076,0.1011,0.1011,0.1011,0,0,0.0399,0.0432,0.0433,0.049,0.0527,0.0558,0.0598,0.063,0.066,0.0716,0.0762,0.0808,0.0871,0.0922,0.0946,0.0953,0.1037,0.1002,0.1001,0.1011,0.1073,0.1079,0.1085,0.1012,0.1012,0.1012,0,0,0.0354,0.0387,0.0378,0.0423,0.0479,0.0527,0.0534,0.0606,0.064,0.0696,0.0741,0.0799,0.087,0.0928,0.0963,0.0991,0.1027,0.0998,0.1006,0.1065,0.1071,0.1077,0.1125,0.1135,0.1005,0.1005,0.1005,0,0.0324,0.0325,0.0384,0.0401,0.0432,0.0509,0.0522,0.0576,0.0656,0.0696,0.07,0.0833,0.0876,0.0965,0.0972,0.0992,0.1025,0.0999,0.1065,0.1071,0.1077,0.1125,0.1137,0.1004,0.1004,0.1004,0.1005,0,0.0278,0.029,0.0291,0.0338,0.0387,0.0405,0.0498,0.0547,0.0596,0.066,0.0749,0.0824,0.0906,0.0928,0.0959,0.1034,0.1042,0.1048,0.1061,0.1082,0.1131,0.1144,0.1002,0.1003,0.1003,0.1003,0,0,0.0186,0.0242,0.0242,0.0252,0.0354,0.038,0.0456,0.0544,0.0591,0.068,0.0748,0.0847,0.0897,0.0942,0.0997,0.1057,0.1122,0.1069,0.1073,0.111,0.1248,0.1398,0.1426,0.1136,0.1139,0.114,0.1262,0,0.0129,0.0109,0.0185,0.0196,0.0196,0.0322,0.0388,0.0489,0.058,0.0668,0.0783,0.0855,0.0901,0.0935,0.1009,0.1094,0.1155,0.1088,0.1229,0.1234,0.136,0.1447,0.1727,0.1873,0.1274,0.1276,0.1278,0,0.0058,0.0056,0.0032,0.0114,0.0133,0.0167,0.0291,0.0363,0.0532,0.0609,0.0733,0.0826,0.0954,0.0965,0.1148,0.1102,0.1171,0.1235,0.1241,0.1405,0.141,0.1759,0.1918,0.2319,0.1298,0.1296,0.1295,0,-0.0082,-0.004,-0.0076,-0.0052,0.0054,0.0088,0.0158,0.0324,0.0391,0.0564,0.0632,0.081,0.0893,0.1019,0.1189,0.1157,0.1383,0.135,0.1555,0.1564,0.1848,0.188,0.2414,0.1466,0.1466,0.1465,0.1465,0,-0.0185,-0.0201,-0.0157,-0.0177,-0.019,-0.0046,-0.0011,0.0105,0.0274,0.0365,0.057,0.0703,0.0908,0.1083,0.12,0.1457,0.1399,0.1593,0.1628,0.1845,0.1875,0.2268,0.2352,0.147,0.1469,0.1468,0.1467,0,-0.0338,-0.0305,-0.0349,-0.0288,-0.0272,-0.0288,-0.0161,-0.0125,0.0081,0.0209,0.0264,0.0607,0.0897,0.1118,0.1357,0.1491,0.1922,0.1778,0.2024,0.2089,0.2651,0.2717,0.3062,0.3186,0.203,0.2035,0.2039,0,-0.0421,-0.0472,-0.0492,-0.0543,-0.0529,-0.0515,-0.05,-0.0284,-0.0209,0.0176,0.023,0.0595,0.0947,0.1413,0.1734,0.2041,0.2168,0.2391,0.2393,0.2784,0.2882,0.2815,0.2885,0.2742,0.2752,0.276,0.2766,0,-0.0589,-0.061,-0.0661,-0.0788,-0.0819,-0.0816,-0.075,-0.07,-0.0394,-0.0142,0.0279,0.0634,0.125,0.1905,0.2327,0.2459,0.272,0.2557,0.2933,0.3488,0.3481,0.3585,0.2526,0.2835,0.2828,0.2823,0.2819,0.2817,-0.0725,-0.0824,-0.0924,-0.1031,-0.1084,-0.1096,-0.1046,-0.085,-0.061,-0.0073,0.03,0.1053,0.2051,0.2801,0.2935,0.3567,0.3254,0.3786,0.3827,0.3714,0.3899,0.2987,0.3348,0.3344,0.3341,0.3338,0.3336,0,-0.0889,-0.1001,-0.1149,-0.1255,-0.1351,-0.1299,-0.119,-0.1,-0.064,-0.0017,0.0595,0.1989,0.3042,0.3754,0.4686,0.4932,0.4775,0.5021,0.508,0.5073,0.4333,0.4445,0.5102,0.5101,0.5101,0.51,0.51,0.51,-0.098,-0.1181,-0.1262,-0.1477,-0.1527,-0.1515,-0.1423,-0.1001,-0.053,0.0533,0.1446,0.2113,0.3386,0.525,0.6187,0.6139,0.6266,0.6196,0.6139,0.5802,0.5692,0.5586,0.5727,0.6641,0.6643,0.693,0.6935,0.6939]}],[{"header":{"parameterUnit":"m.s-1","parameterCategory":2,"la1":30.2991,"la2":30.254,"lo1":-89.0895,"lo2":-89.0444,"dy":0.0017,"dx":0.0017,"nx":28,"ny":28,"refTime":"2025-01-10T03:00:00:Z","depth":"2","parameterNumber":2,"parameterNumberName":"U-component_of_CURRENTS"},"data":[0,0,0,0,0,0,0,0,0,0,0,0,0,0,0,0,0,0,0,0,0,0,0,0,0,0,0,0,0,0,0,0,0,0,0,0,0,0,0,0,0,0,0,0,0,0,0,0,0,0,0,0,0,0,0,0,0,0,-0.163,-0.1629,0,-0.1569,-0.1568,-0.1567,-0.1537,-0.1537,-0.1537,-0.1538,-0.142,-0.1416,-0.1413,0,0,0,0,0,0,0,0,0,0,0,0,0,-0.1607,-0.1608,-0.163,-0.1629,-0.1629,-0.1569,-0.1568,-0.1567,-0.1536,-0.1537,-0.1537,-0.1538,-0.1421,-0.1417,-0.1412,0,0,0,0,0,0,0,0,0,0,0,0,0,-0.1585,-0.1609,-0.163,-0.161,-0.1608,-0.157,-0.1568,-0.1566,-0.1536,-0.1537,-0.1538,-0.1538,-0.1422,-0.1417,-0.1412,-0.1367,0,0,-0.1396,-0.1393,0,0,0,0,0,0,0,0,-0.1586,-0.1585,-0.1613,-0.1611,-0.1609,-0.1565,-0.1517,-0.1499,-0.1536,-0.1559,-0.1538,-0.1538,-0.1465,-0.1456,-0.1438,-0.1362,-0.1357,-0.1395,-0.1392,-0.139,-0.1388,0,0,0,0,0,0,0,-0.1588,-0.1587,-0.1601,-0.1613,-0.161,-0.1566,-0.1564,-0.1513,-0.1505,-0.1557,-0.1556,-0.1556,-0.1463,-0.1443,-0.1435,-0.1355,-0.1395,-0.1391,-0.1387,-0.1385,-0.1215,-0.1213,0,0,0,0,0,0,-0.161,-0.1589,-0.1603,-0.16,-0.1604,-0.1567,-0.1564,-0.1575,-0.1507,-0.1499,-0.1555,-0.1555,-0.1452,-0.1441,-0.1431,-0.1412,-0.139,-0.1385,-0.1382,-0.1216,-0.1214,-0.1213,0,0,0,0,0,0,-0.161,-0.1612,-0.1606,-0.1596,-0.1593,-0.1568,-0.1579,-0.1573,-0.1566,-0.1507,-0.1497,-0.1556,-0.1452,-0.1438,-0.1382,-0.1405,-0.1382,-0.1378,-0.1218,-0.1215,-0.1214,-0.1349,0,0,0,0,0,0,-0.161,-0.1613,-0.1625,-0.1598,-0.1594,-0.1595,-0.1579,-0.1572,-0.1567,-0.1565,-0.1504,-0.1493,-0.1452,-0.139,-0.1377,-0.1398,-0.1374,-0.1219,-0.1217,-0.1214,-0.1346,-0.1352,-0.1356,0,0,0,0,0,-0.1609,-0.1629,-0.1626,-0.1628,-0.1613,-0.1596,-0.1589,-0.1569,-0.1567,-0.1564,-0.1513,-0.1495,-0.1364,-0.1385,-0.1369,-0.139,-0.1221,-0.1217,-0.1214,-0.1344,-0.135,-0.1356,0,0,0,0,0,0,-0.1627,-0.1627,-0.1624,-0.1643,-0.1626,-0.1592,-0.1592,-0.1577,-0.1536,-0.1534,-0.1478,-0.1462,-0.1414,-0.1369,-0.1394,-0.1324,-0.1289,-0.1283,-0.1392,-0.1398,-0.1403,-0.1498,-0.1369,0,0,0,0,0,-0.1638,-0.1653,-0.1638,-0.1653,-0.165,-0.1622,-0.1613,-0.1599,-0.1562,-0.1546,-0.1499,-0.144,-0.1385,-0.137,-0.13,-0.1274,-0.1316,-0.127,-0.1275,-0.1281,-0.1341,-0.1396,-0.1415,-0.1203,-0.1203,-0.1203,0,0,-0.1648,-0.1652,-0.1659,-0.1658,-0.1644,-0.1651,-0.1617,-0.1611,-0.1619,-0.1537,-0.1521,-0.1447,-0.1372,-0.1334,-0.1312,-0.1311,-0.1363,-0.1277,-0.1283,-0.1342,-0.1395,-0.1417,-0.1437,-0.1201,-0.1201,-0.1201,0,0,-0.1677,-0.1681,-0.1702,-0.1698,-0.1689,-0.1672,-0.1678,-0.1644,-0.1634,-0.1594,-0.1539,-0.1498,-0.1397,-0.1379,-0.135,-0.1341,-0.1372,-0.1295,-0.1429,-0.148,-0.1501,-0.152,-0.163,-0.1658,-0.1321,-0.1321,-0.1321,0,-0.1692,-0.1732,-0.1702,-0.1723,-0.1751,-0.1692,-0.1735,-0.1698,-0.1648,-0.167,-0.16,-0.1514,-0.1433,-0.1453,-0.1439,-0.1366,-0.1419,-0.1423,-0.1499,-0.1518,-0.1535,-0.1643,-0.1672,-0.1327,-0.1326,-0.1326,-0.1325,0,-0.1738,-0.1775,-0.1789,-0.181,-0.182,-0.1844,-0.1815,-0.181,-0.1778,-0.1758,-0.1745,-0.1634,-0.1614,-0.1552,-0.1492,-0.1569,-0.1577,-0.1491,-0.1512,-0.1567,-0.1674,-0.1702,-0.1336,-0.1334,-0.1332,-0.133,0,0,-0.1777,-0.182,-0.1828,-0.189,-0.1888,-0.1915,-0.193,-0.1964,-0.2023,-0.1924,-0.2006,-0.1875,-0.1842,-0.1808,-0.1727,-0.1761,-0.1901,-0.1697,-0.1697,-0.1861,-0.2086,-0.2224,-0.2267,-0.1838,-0.1843,-0.1846,-0.2126,0,-0.1839,-0.1925,-0.1929,-0.2032,-0.2091,-0.2083,-0.2129,-0.2143,-0.2121,-0.2159,-0.2076,-0.2076,-0.1929,-0.1933,-0.1943,-0.1887,-0.1976,-0.1838,-0.1962,-0.1968,-0.2128,-0.2304,-0.1846,-0.2069,-0.2153,-0.2158,-0.2161,0,-0.1889,-0.1963,-0.2068,-0.2217,-0.2247,-0.2284,-0.2409,-0.2434,-0.2453,-0.2449,-0.2441,-0.2363,-0.238,-0.223,-0.2273,-0.2196,-0.2188,-0.2151,-0.2159,-0.2275,-0.216,-0.2013,-0.2117,-0.2208,-0.2204,-0.2201,-0.2198,0,-0.1954,-0.2076,-0.2184,-0.2219,-0.2336,-0.2408,-0.2472,-0.2521,-0.2595,-0.2632,-0.2698,-0.2667,-0.2676,-0.2638,-0.2535,-0.2429,-0.261,-0.2441,-0.2591,-0.26,-0.2236,-0.2208,-0.2558,-0.2557,-0.2557,-0.2556,-0.2555,0,-0.2034,-0.2132,-0.2223,-0.2283,-0.246,-0.2506,-0.2668,-0.272,-0.2813,-0.2939,-0.2854,-0.2953,-0.2778,-0.2816,-0.27,-0.2784,-0.2757,-0.2716,-0.2712,-0.2271,-0.2245,-0.2351,-0.2323,-0.2566,-0.2564,-0.2562,-0.256,0,-0.2083,-0.2125,-0.2271,-0.2423,-0.2476,-0.2596,-0.2783,-0.2897,-0.2984,-0.3148,-0.318,-0.3211,-0.3273,-0.3158,-0.3126,-0.3052,-0.3063,-0.3103,-0.265,-0.2593,-0.2982,-0.2956,-0.333,-0.3338,-0.3344,-0.335,-0.3354,0,-0.212,-0.2178,-0.2352,-0.2426,-0.2492,-0.2664,-0.2784,-0.2941,-0.3064,-0.3313,-0.3408,-0.3533,-0.3576,-0.3639,-0.338,-0.3308,-0.3347,-0.3068,-0.2795,-0.312,-0.3076,-0.3039,-0.3006,-0.2339,-0.2335,-0.2331,-0.2329,0,-0.2193,-0.2221,-0.2322,-0.2458,-0.2588,-0.2773,-0.2954,-0.3085,-0.3292,-0.3407,-0.3633,-0.3699,-0.3727,-0.3412,-0.3361,-0.3238,-0.3024,-0.3022,-0.3451,-0.2267,-0.2222,-0.2167,-0.2158,-0.2299,-0.2302,-0.2304,-0.2306,-0.2307,-0.2216,-0.2278,-0.2344,-0.2473,-0.2622,-0.2787,-0.2827,-0.2898,-0.3027,-0.2931,-0.3426,-0.3207,-0.337,-0.2867,-0.2906,-0.2803,-0.2974,-0.2818,-0.2809,-0.2808,-0.2697,-0.2672,-0.2814,-0.282,-0.2825,-0.2829,-0.2833,0,-0.2163,-0.2253,-0.2353,-0.2442,-0.244,-0.2643,-0.2845,-0.2617,-0.2466,-0.244,-0.239,-0.2256,-0.2164,-0.2309,-0.2045,-0.226,-0.2002,-0.2296,-0.1852,-0.1883,-0.191,-0.1735,-0.1608,-0.1606,-0.1604,-0.1602,0,0,-0.2141,-0.2141,-0.2159,-0.2129,-0.2224,-0.2071,-0.2109,-0.1787,-0.1573,-0.12,-0.1012,-0.1172,-0.1788,-0.1399,-0.1634,-0.1528,-0.1595,-0.1445,-0.238,-0.1841,-0.1861,-0.2161,-0.1928,0,0,0,0,0]},{"header":{"parameterUnit":"m.s-1","parameterCategory":2,"la1":30.2991,"la2":30.254,"lo1":-89.0895,"lo2":-89.0444,"dy":0.0017,"dx":0.0017,"nx":28,"ny":28,"refTime":"2025-01-10T03:00:00:Z","depth":"2","parameterNumber":3,"parameterNumberName":"V-component_of_CURRENTS"},"data":[0,0,0,0,0,0,0,0,0,0,0,0,0,0,0,0,0,0,0,0,0,0,0,0,0,0,0,0,0,0,0,0,0,0,0,0,0,0,0,0,0,0,0,0,0,0,0,0,0,0,0,0,0,0,0,0,0,0,0.054,0.0541,0,0.0653,0.0654,0.0656,0.0705,0.0704,0.0704,0.0704,0.0818,0.0821,0.0824,0,0,0,0,0,0,0,0,0,0,0,0,0,0.0437,0.0438,0.054,0.0541,0.0543,0.0653,0.0654,0.0656,0.0705,0.0704,0.0704,0.0704,0.0816,0.082,0.0824,0,0,0,0,0,0,0,0,0,0,0,0,0,0.0509,0.0438,0.054,0.058,0.0585,0.0652,0.0654,0.0656,0.0705,0.0704,0.0704,0.0704,0.0815,0.082,0.0825,0.086,0,0,0.0839,0.0841,0,0,0,0,0,0,0,0,0.0505,0.0513,0.0573,0.0578,0.0583,0.0664,0.066,0.0724,0.0705,0.066,0.0704,0.0704,0.0766,0.0775,0.0797,0.0866,0.0871,0.084,0.0843,0.0845,0.0846,0,0,0,0,0,0,0,0.0499,0.0508,0.0585,0.0574,0.0581,0.0617,0.0626,0.0672,0.0713,0.0663,0.0667,0.0679,0.0769,0.0793,0.08,0.0872,0.084,0.0844,0.0847,0.0849,0.0984,0.0985,0,0,0,0,0,0,0.0482,0.0503,0.0582,0.0588,0.0542,0.0618,0.0629,0.0639,0.0713,0.0724,0.068,0.0681,0.0785,0.0795,0.0805,0.0856,0.0845,0.0849,0.0852,0.0984,0.0984,0.0985,0,0,0,0,0,0,0.0479,0.0488,0.0577,0.0548,0.0562,0.062,0.0631,0.0641,0.0662,0.0725,0.0736,0.069,0.0785,0.0798,0.085,0.086,0.0851,0.0856,0.0983,0.0984,0.0985,0.0955,0,0,0,0,0,0,0.0476,0.0486,0.0483,0.0547,0.0563,0.061,0.0632,0.0643,0.067,0.0674,0.0738,0.0748,0.0786,0.0842,0.0855,0.0867,0.086,0.0982,0.0983,0.0985,0.0955,0.0955,0.0955,0,0,0,0,0,0.0471,0.0465,0.0482,0.0491,0.0558,0.061,0.0622,0.0663,0.0671,0.068,0.0728,0.0746,0.0859,0.0847,0.0861,0.0875,0.0981,0.0983,0.0984,0.0955,0.0955,0.0955,0,0,0,0,0,0,0.0417,0.0471,0.0491,0.0501,0.055,0.0618,0.0626,0.0659,0.0705,0.0704,0.0761,0.0775,0.082,0.0854,0.084,0.0918,0.0922,0.0926,0.0895,0.0895,0.0895,0.0893,0.0864,0,0,0,0,0,0.0404,0.0409,0.0477,0.0481,0.0503,0.0564,0.0588,0.062,0.0671,0.0691,0.0739,0.0791,0.084,0.0871,0.0914,0.0963,0.1,0.098,0.098,0.098,0.0988,0.105,0.1056,0.099,0.099,0.099,0,0,0.0379,0.0412,0.0413,0.047,0.0507,0.0538,0.0577,0.0609,0.064,0.0696,0.0742,0.0788,0.0851,0.0902,0.0926,0.0933,0.1017,0.0982,0.0981,0.099,0.1052,0.1058,0.1064,0.0992,0.0991,0.0991,0,0,0.0334,0.0367,0.0358,0.0403,0.0459,0.0507,0.0514,0.0586,0.062,0.0676,0.0721,0.0779,0.085,0.0907,0.0943,0.0971,0.1007,0.0977,0.0987,0.1045,0.1051,0.1057,0.1105,0.1115,0.0985,0.0985,0.0985,0,0.0304,0.0306,0.0364,0.0381,0.0412,0.0489,0.0502,0.0556,0.0637,0.0676,0.068,0.0814,0.0856,0.0945,0.0952,0.0972,0.1005,0.0979,0.1045,0.1051,0.1057,0.1105,0.1117,0.0984,0.0984,0.0984,0.0985,0,0.0258,0.027,0.0271,0.0318,0.0367,0.0385,0.0478,0.0527,0.0577,0.064,0.073,0.0805,0.0887,0.0909,0.094,0.1014,0.1023,0.1028,0.1041,0.1062,0.1111,0.1124,0.0982,0.0983,0.0983,0.0983,0,0,0.0167,0.0222,0.0223,0.0232,0.0334,0.0361,0.0437,0.0525,0.0571,0.066,0.0728,0.0827,0.0878,0.0922,0.0977,0.1037,0.1102,0.1049,0.1053,0.109,0.1228,0.1376,0.1404,0.1117,0.1119,0.1121,0.1241,0,0.011,0.009,0.0166,0.0177,0.0177,0.0303,0.0369,0.047,0.0561,0.0648,0.0763,0.0835,0.0882,0.0916,0.099,0.1074,0.1135,0.1069,0.1209,0.1213,0.1338,0.1425,0.0974,0.1058,0.1254,0.1256,0.1257,0,0.0039,0.0037,0.0014,0.0095,0.0114,0.0148,0.0271,0.0343,0.0512,0.0589,0.0713,0.0806,0.0934,0.0945,0.1128,0.1082,0.1151,0.1215,0.1221,0.1383,0.1388,0.1072,0.1074,0.1279,0.1277,0.1276,0.1274,0,-0.0101,-0.0059,-0.0094,-0.007,0.0035,0.0069,0.0139,0.0305,0.0371,0.0544,0.0613,0.079,0.0873,0.0999,0.1169,0.1137,0.1362,0.1329,0.1533,0.1542,0.1203,0.1183,0.1445,0.1445,0.1445,0.1444,0.1444,0,-0.0203,-0.0219,-0.0175,-0.0196,-0.0208,-0.0064,-0.0029,0.0086,0.0255,0.0346,0.0551,0.0683,0.0888,0.1062,0.1179,0.1435,0.1378,0.157,0.1606,0.1185,0.1163,0.1385,0.1376,0.1449,0.1448,0.1447,0.1446,0,-0.0356,-0.0323,-0.0367,-0.0306,-0.029,-0.0306,-0.018,-0.0143,0.0062,0.019,0.0245,0.0586,0.0876,0.1096,0.1335,0.1469,0.1667,0.1754,0.127,0.1254,0.179,0.1778,0.1992,0.1999,0.2004,0.2009,0.2013,0,-0.0439,-0.0489,-0.051,-0.056,-0.0546,-0.0533,-0.0517,-0.0302,-0.0228,0.0156,0.021,0.0574,0.0877,0.1341,0.1432,0.1672,0.1849,0.1605,0.1506,0.1845,0.1857,0.1836,0.1817,0.0996,0.0992,0.0988,0.0985,0,-0.0606,-0.0627,-0.0678,-0.0805,-0.0836,-0.0834,-0.0768,-0.0718,-0.0413,-0.0206,0.0214,0.0521,0.092,0.1078,0.1407,0.1497,0.154,0.1557,0.1979,0.1007,0.0939,0.0942,0.0947,0.0951,0.0954,0.0957,0.0959,0.096,-0.0742,-0.084,-0.094,-0.1047,-0.11,-0.1113,-0.1063,-0.1028,-0.085,-0.0652,-0.0156,0.0108,0.0551,0.0731,0.1083,0.1291,0.1381,0.1424,0.1418,0.1421,0.1364,0.1319,0.1387,0.1393,0.1398,0.1402,0.1406,0,-0.0924,-0.1018,-0.1165,-0.1271,-0.1387,-0.1316,-0.1207,-0.1214,-0.1113,-0.1052,-0.0806,-0.0466,-0.0228,0.0324,0.048,0.0886,0.0693,0.109,0.0699,0.0724,0.0749,0.0647,0.0487,0.0488,0.049,0.0491,0,0,-0.102,-0.1226,-0.1307,-0.1529,-0.1566,-0.1634,-0.1545,-0.1574,-0.1557,-0.1513,-0.1448,-0.1431,-0.0485,-0.0484,-0.0009,0.0228,0.0378,0.0226,0.0861,0.0347,0.0369,0.0792,0.065,0,0,0,0,0]}],[{"header":{"parameterUnit":"m.s-1","parameterCategory":2,"la1":30.2991,"la2":30.254,"lo1":-89.0895,"lo2":-89.0444,"dy":0.0017,"dx":0.0017,"nx":28,"ny":28,"refTime":"2025-01-10T03:00:00:Z","depth":"4","parameterNumber":2,"parameterNumberName":"U-component_of_CURRENTS"},"data":[0,0,0,0,0,0,0,0,0,0,0,0,0,0,0,0,0,0,0,0,0,0,0,0,0,0,0,0,0,0,0,0,0,0,0,0,0,0,0,0,0,0,0,0,0,0,0,0,0,0,0,0,0,0,0,0,0,0,-0.0221,-0.0221,0,-0.0252,-0.0252,-0.0253,-0.0253,-0.0253,-0.0253,-0.0253,-0.0196,-0.0194,-0.0193,0,0,0,0,0,0,0,0,0,0,0,0,0,-0.0096,-0.0098,-0.022,-0.0221,-0.0222,-0.0252,-0.0253,-0.0253,-0.0253,-0.0253,-0.0253,-0.0253,-0.0196,-0.0195,-0.0193,0,0,0,0,0,0,0,0,0,0,0,0,0,-0.0137,-0.0099,-0.022,-0.0229,-0.023,-0.0252,-0.0253,-0.0253,-0.0253,-0.0253,-0.0253,-0.0253,-0.0197,-0.0195,-0.0193,-0.018,0,0,-0.0186,-0.0185,0,0,0,0,0,0,0,0,-0.0135,-0.0141,-0.0227,-0.0228,-0.023,-0.0252,-0.0188,-0.0225,-0.0253,-0.024,-0.0253,-0.0253,-0.0209,-0.0206,-0.0208,-0.0177,-0.0175,-0.0186,-0.0184,-0.0183,-0.0183,0,0,0,0,0,0,0,-0.0132,-0.014,-0.0229,-0.0228,-0.023,-0.0209,-0.0215,-0.0195,-0.022,-0.0241,-0.0242,-0.0252,-0.0209,-0.021,-0.0206,-0.0174,-0.0186,-0.0184,-0.0182,-0.0181,-0.0128,-0.0128,0,0,0,0,0,0,-0.014,-0.0138,-0.0228,-0.023,-0.0186,-0.0212,-0.0219,-0.0242,-0.0222,-0.0221,-0.0252,-0.0252,-0.0214,-0.0209,-0.0204,-0.0226,-0.0183,-0.0181,-0.018,-0.0128,-0.0128,-0.0128,0,0,0,0,0,0,-0.0138,-0.0149,-0.0227,-0.0187,-0.0196,-0.0215,-0.0241,-0.0243,-0.0258,-0.0232,-0.0228,-0.0268,-0.0213,-0.0207,-0.02,-0.0222,-0.018,-0.0178,-0.0128,-0.0128,-0.0128,-0.0245,0,0,0,0,0,0,-0.0134,-0.0148,-0.0169,-0.0188,-0.0199,-0.0257,-0.0241,-0.0243,-0.0265,-0.0265,-0.0243,-0.0238,-0.0213,-0.0204,-0.0198,-0.0218,-0.0176,-0.0128,-0.0128,-0.0128,-0.0242,-0.0249,-0.0256,0,0,0,0,0,-0.013,-0.0162,-0.017,-0.0181,-0.0227,-0.0259,-0.0262,-0.0272,-0.0266,-0.0282,-0.0264,-0.0239,-0.0198,-0.0203,-0.0196,-0.0216,-0.0128,-0.0128,-0.0128,-0.0238,-0.0248,-0.0256,0,0,0,0,0,0,-0.0114,-0.0166,-0.0175,-0.022,-0.0246,-0.0261,-0.0284,-0.0282,-0.0282,-0.0283,-0.0247,-0.0241,-0.0237,-0.0204,-0.021,-0.0194,-0.0155,-0.0153,-0.0241,-0.0249,-0.0256,-0.0306,-0.0175,0,0,0,0,0,-0.0124,-0.0168,-0.0199,-0.0238,-0.0257,-0.0271,-0.0285,-0.0293,-0.0296,-0.0297,-0.0281,-0.0253,-0.0228,-0.0224,-0.0195,-0.0197,-0.0221,-0.0198,-0.0205,-0.0212,-0.0244,-0.0287,-0.0304,-0.0127,-0.0127,-0.0127,0,0,-0.0125,-0.0164,-0.0185,-0.0239,-0.0262,-0.0308,-0.028,-0.0316,-0.0349,-0.0289,-0.0322,-0.0279,-0.0231,-0.0232,-0.0227,-0.0213,-0.0279,-0.0211,-0.0218,-0.0247,-0.0289,-0.0307,-0.0323,-0.0127,-0.0127,-0.0127,0,0,-0.0168,-0.0192,-0.025,-0.0282,-0.0332,-0.034,-0.0355,-0.038,-0.0387,-0.0405,-0.0364,-0.0345,-0.0313,-0.0293,-0.0273,-0.03,-0.031,-0.0275,-0.0365,-0.0407,-0.0424,-0.0438,-0.0528,-0.055,-0.0286,-0.0286,-0.0286,0,-0.0169,-0.0258,-0.0266,-0.0334,-0.0376,-0.0362,-0.043,-0.0432,-0.0447,-0.0463,-0.0429,-0.0398,-0.0347,-0.0361,-0.0363,-0.0323,-0.0367,-0.0344,-0.0423,-0.0438,-0.0451,-0.0539,-0.0561,-0.0292,-0.0291,-0.029,-0.029,0,-0.0258,-0.0334,-0.0372,-0.0458,-0.0489,-0.0547,-0.0559,-0.058,-0.0574,-0.0575,-0.0585,-0.0521,-0.0512,-0.0473,-0.0427,-0.0483,-0.0494,-0.0428,-0.0418,-0.0478,-0.0564,-0.0586,-0.03,-0.0298,-0.0296,-0.0295,0,0,-0.0261,-0.0409,-0.0428,-0.0503,-0.0569,-0.0608,-0.0657,-0.0707,-0.0759,-0.0728,-0.0795,-0.0717,-0.0687,-0.0662,-0.0598,-0.0618,-0.0737,-0.0576,-0.0575,-0.0697,-0.089,-0.0871,-0.0893,-0.0697,-0.07,-0.0703,-0.0928,0,-0.034,-0.05,-0.0547,-0.0684,-0.0764,-0.0778,-0.0837,-0.0866,-0.0871,-0.0922,-0.0853,-0.0877,-0.0757,-0.0766,-0.0766,-0.0735,-0.0794,-0.0686,-0.0786,-0.0791,-0.0792,-0.0915,-0.0713,-0.0944,-0.0949,-0.0952,-0.0955,0,-0.0417,-0.0524,-0.0677,-0.0832,-0.0869,-0.0932,-0.1032,-0.108,-0.1118,-0.1128,-0.1128,-0.1087,-0.1099,-0.0987,-0.1019,-0.0963,-0.0957,-0.0931,-0.0937,-0.0897,-0.0811,-0.0857,-0.0994,-0.0991,-0.0988,-0.0985,-0.0983,0,-0.0426,-0.0615,-0.0747,-0.0798,-0.0949,-0.1015,-0.1082,-0.114,-0.1209,-0.1267,-0.1334,-0.1313,-0.1341,-0.1305,-0.123,-0.1154,-0.1288,-0.1171,-0.1167,-0.1167,-0.1064,-0.1044,-0.1246,-0.1246,-0.1246,-0.1245,-0.1244,0,-0.0487,-0.0598,-0.0768,-0.0839,-0.0988,-0.107,-0.121,-0.126,-0.137,-0.1466,-0.1446,-0.1517,-0.1424,-0.1458,-0.136,-0.1357,-0.1403,-0.1243,-0.1235,-0.1108,-0.1092,-0.1082,-0.106,-0.1253,-0.1252,-0.125,-0.1248,0,-0.0468,-0.0588,-0.0746,-0.0935,-0.0995,-0.109,-0.1286,-0.1379,-0.1493,-0.1625,-0.1664,-0.1727,-0.1759,-0.1691,-0.1667,-0.1557,-0.1525,-0.1516,-0.1474,-0.1448,-0.1354,-0.1334,-0.1558,-0.1559,-0.156,-0.1561,-0.1562,0,-0.0475,-0.0556,-0.0781,-0.0864,-0.0953,-0.1115,-0.1221,-0.1392,-0.1495,-0.1728,-0.1788,-0.191,-0.191,-0.1887,-0.1803,-0.1721,-0.1643,-0.1671,-0.143,-0.1423,-0.1392,-0.137,-0.135,-0.1564,-0.1564,-0.1565,-0.1565,0,-0.0464,-0.0543,-0.0659,-0.0821,-0.0956,-0.1117,-0.1287,-0.1376,-0.1577,-0.1747,-0.1866,-0.1886,-0.1956,-0.1871,-0.1858,-0.1755,-0.1661,-0.1681,-0.1674,-0.1448,-0.1433,-0.1396,-0.1374,-0.1569,-0.1569,-0.1568,-0.1568,0,-0.0425,-0.0488,-0.0617,-0.0756,-0.0909,-0.1026,-0.1157,-0.1317,-0.1457,-0.1728,-0.1777,-0.1864,-0.1966,-0.1902,-0.1867,-0.1802,-0.1712,-0.1603,-0.1598,-0.1594,-0.1483,-0.1461,-0.1659,0,0,0,0,0,-0.0374,-0.0426,-0.0542,-0.0672,-0.081,-0.0883,-0.1147,-0.1283,-0.1528,-0.1584,-0.1677,-0.1723,-0.1733,-0.1778,-0.1694,-0.1826,-0.1677,-0.1725,-0.154,-0.1593,-0.1588,-0.1443,0,0,0,0,0,0,-0.034,-0.0423,-0.0494,-0.0546,-0.059,-0.0728,-0.0875,-0.1059,-0.112,-0.1372,-0.1371,-0.159,-0.1585,-0.169,-0.1622,-0.1639,-0.1493,-0.1806,-0.1803,-0.1596,-0.1591,-0.1587,-0.1436,0,0,0,0,0]},{"header":{"parameterUnit":"m.s-1","parameterCategory":2,"la1":30.2991,"la2":30.254,"lo1":-89.0895,"lo2":-89.0444,"dy":0.0017,"dx":0.0017,"nx":28,"ny":28,"refTime":"2025-01-10T03:00:00:Z","depth":"4","parameterNumber":3,"parameterNumberName":"V-component_of_CURRENTS"},"data":[0,0,0,0,0,0,0,0,0,0,0,0,0,0,0,0,0,0,0,0,0,0,0,0,0,0,0,0,0,0,0,0,0,0,0,0,0,0,0,0,0,0,0,0,0,0,0,0,0,0,0,0,0,0,0,0,0,0,-0.0587,-0.0586,0,-0.0491,-0.049,-0.0489,-0.0462,-0.0462,-0.0463,-0.0463,-0.0396,-0.0394,-0.0392,0,0,0,0,0,0,0,0,0,0,0,0,0,-0.0687,-0.0685,-0.0587,-0.0586,-0.0584,-0.0491,-0.049,-0.0488,-0.0462,-0.0462,-0.0463,-0.0463,-0.0397,-0.0394,-0.0392,0,0,0,0,0,0,0,0,0,0,0,0,0,-0.0623,-0.0685,-0.0587,-0.056,-0.0556,-0.0491,-0.049,-0.0488,-0.0461,-0.0462,-0.0463,-0.0464,-0.0398,-0.0395,-0.0391,-0.0354,0,0,-0.0381,-0.0379,0,0,0,0,0,0,0,0,-0.0626,-0.0619,-0.0565,-0.0561,-0.0558,-0.0489,-0.05,-0.0445,-0.0461,-0.0497,-0.0463,-0.0464,-0.0429,-0.0423,-0.0403,-0.0351,-0.0348,-0.0381,-0.0378,-0.0377,-0.0376,0,0,0,0,0,0,0,-0.0631,-0.0623,-0.0549,-0.0564,-0.0559,-0.0532,-0.0524,-0.0489,-0.0461,-0.0494,-0.0492,-0.0481,-0.0428,-0.0407,-0.0402,-0.0347,-0.0381,-0.0378,-0.0375,-0.0374,-0.0209,-0.0207,0,0,0,0,0,0,-0.0645,-0.0627,-0.0552,-0.0546,-0.0595,-0.053,-0.0521,-0.051,-0.046,-0.0453,-0.0481,-0.048,-0.0412,-0.0406,-0.0399,-0.0309,-0.0377,-0.0374,-0.0372,-0.0212,-0.0209,-0.0206,0,0,0,0,0,0,-0.0647,-0.0639,-0.0556,-0.0584,-0.0572,-0.0528,-0.0515,-0.0508,-0.0488,-0.045,-0.0443,-0.0469,-0.0412,-0.0404,-0.0349,-0.0309,-0.0372,-0.0369,-0.0214,-0.0211,-0.0207,-0.0158,0,0,0,0,0,0,-0.065,-0.064,-0.0639,-0.0585,-0.0571,-0.0512,-0.0514,-0.0505,-0.048,-0.0479,-0.0438,-0.0432,-0.0412,-0.0354,-0.0346,-0.0305,-0.0366,-0.0217,-0.0213,-0.0209,-0.0162,-0.0153,-0.0145,0,0,0,0,0,-0.0654,-0.0649,-0.064,-0.0631,-0.057,-0.0511,-0.0501,-0.0472,-0.0479,-0.046,-0.0425,-0.0433,-0.032,-0.0349,-0.034,-0.0298,-0.0219,-0.0214,-0.0209,-0.0166,-0.0155,-0.0145,0,0,0,0,0,0,-0.0695,-0.0644,-0.0633,-0.0614,-0.0565,-0.0507,-0.0491,-0.0472,-0.0429,-0.0432,-0.0405,-0.0394,-0.0329,-0.0319,-0.0352,-0.0235,-0.0271,-0.0263,-0.0241,-0.023,-0.0222,-0.0249,-0.0364,0,0,0,0,0,-0.0703,-0.0685,-0.0627,-0.0612,-0.059,-0.0542,-0.0518,-0.0492,-0.0447,-0.043,-0.0393,-0.0351,-0.0298,-0.0272,-0.0228,-0.0168,-0.0169,-0.0133,-0.0125,-0.0118,-0.0131,-0.0089,-0.0078,-0.0189,-0.0189,-0.0189,0,0,-0.0718,-0.0686,-0.0678,-0.0619,-0.0584,-0.0532,-0.0529,-0.0488,-0.044,-0.0429,-0.0359,-0.0322,-0.0275,-0.02,-0.017,-0.0188,-0.0081,-0.0111,-0.0105,-0.0123,-0.0082,-0.0072,-0.0063,-0.0185,-0.0186,-0.0187,0,0,-0.0723,-0.0706,-0.0685,-0.0636,-0.0576,-0.0535,-0.0524,-0.0455,-0.0424,-0.0348,-0.0324,-0.0265,-0.0186,-0.0138,-0.0106,-0.0025,-0.0038,-0.0008,0.0016,0.0059,0.0067,0.0075,0.0101,0.0111,-0.0002,-0.0002,-0.0002,0,-0.0745,-0.0709,-0.0669,-0.0621,-0.0587,-0.0536,-0.0495,-0.0439,-0.0358,-0.0333,-0.0321,-0.0193,-0.0153,-0.0065,-0.0029,-0.0007,0.0004,-0.0029,0.0067,0.0075,0.0081,0.0107,0.0116,0.0001,0.0001,0.0,0.0,0,-0.0719,-0.0687,-0.0668,-0.0593,-0.0544,-0.0505,-0.0421,-0.0373,-0.0332,-0.0279,-0.0189,-0.0118,-0.0054,-0.0011,0.0008,0.0086,0.0075,0.007,0.0033,0.0095,0.0119,0.0128,0.0005,0.0004,0.0003,0.0003,0,0,-0.078,-0.0677,-0.067,-0.0645,-0.0533,-0.0503,-0.041,-0.0332,-0.0298,-0.0196,-0.0142,-0.0021,-0.0003,0.0034,0.0075,0.0125,0.0198,0.0117,0.0118,0.0129,0.028,0.0225,0.023,0.0207,0.0209,0.021,0.0282,0,-0.0779,-0.0723,-0.0649,-0.059,-0.056,-0.0474,-0.0401,-0.0319,-0.0246,-0.0175,-0.0085,-0.0014,0.0024,0.0051,0.0115,0.0174,0.0222,0.0178,0.023,0.0231,0.0162,0.0238,0.0215,0.0288,0.029,0.0292,0.0293,0,-0.0773,-0.0743,-0.07,-0.062,-0.0599,-0.0548,-0.0464,-0.0388,-0.0262,-0.0205,-0.0109,-0.004,0.007,0.0079,0.0217,0.0185,0.023,0.0275,0.0279,0.0208,0.0193,0.0212,0.0309,0.0307,0.0306,0.0305,0.0304,0,-0.0866,-0.0776,-0.0763,-0.073,-0.0622,-0.0597,-0.0539,-0.0417,-0.0371,-0.0234,-0.0189,-0.0046,0.0018,0.0114,0.0225,0.0221,0.0353,0.0357,0.0352,0.0348,0.0349,0.034,0.0434,0.0434,0.0434,0.0434,0.0433,0,-0.0892,-0.0881,-0.0819,-0.0814,-0.0813,-0.0691,-0.0666,-0.0579,-0.0458,-0.0415,-0.0232,-0.0166,0.0027,0.0135,0.0224,0.0316,0.0354,0.0361,0.0368,0.0372,0.0365,0.0356,0.0346,0.0436,0.0436,0.0435,0.0435,0,-0.0972,-0.0927,-0.0929,-0.0867,-0.0859,-0.0861,-0.0777,-0.0757,-0.0607,-0.054,-0.0497,-0.0258,-0.0107,0.0067,0.0232,0.0298,0.0397,0.041,0.04,0.0403,0.0365,0.0358,0.0425,0.0423,0.0422,0.0422,0.0421,0,-0.0997,-0.1009,-0.1019,-0.1052,-0.103,-0.1017,-0.1017,-0.0872,-0.0837,-0.0611,-0.0596,-0.0387,-0.024,-0.0039,0.0162,0.0344,0.0353,0.0414,0.0402,0.0367,0.0367,0.0361,0.0355,0.0419,0.0419,0.0419,0.0418,0,-0.1059,-0.1083,-0.1097,-0.1182,-0.1214,-0.1239,-0.1212,-0.119,-0.1013,-0.0883,-0.0708,-0.0509,-0.0327,-0.0097,0.0055,0.0184,0.0391,0.0403,0.0406,0.0396,0.0361,0.0361,0.0356,0.0415,0.0415,0.0416,0.0416,0,-0.1121,-0.1167,-0.1218,-0.1278,-0.1359,-0.1419,-0.1387,-0.1316,-0.1242,-0.0969,-0.0926,-0.0634,-0.0434,-0.0182,-0.0043,0.0092,0.0122,0.0152,0.0169,0.0176,0.0089,0.0008,-0.0038,0,0,0,0,0,-0.1161,-0.1217,-0.13,-0.1369,-0.1466,-0.1499,-0.1496,-0.1433,-0.1267,-0.1197,-0.1049,-0.0876,-0.0556,-0.0366,-0.0257,-0.0082,0.0132,0.0053,0.0168,0.0395,0.0399,0.0335,0,0,0,0,0,0,-0.1186,-0.1276,-0.131,-0.1444,-0.1505,-0.1594,-0.1602,-0.1497,-0.1428,-0.1235,-0.1082,-0.0875,-0.0588,-0.0649,-0.0265,-0.0201,-0.0119,0.0243,0.0245,0.0392,0.0396,0.0399,0.0336,0,0,0,0,0]}]]